Location: K�ln
(50.9455°N, 6.9544°E)
Time: 10:44:35
(UTC+01:00)

ISS - Pass Details

Date: 07 January 2018
Orbit: 402 x 406 km, 51.6° (Epoch: 16 January)

Event Time Altitude Azimuth Distance (km) Brightness Sun altitude
Exits shadow 07:30:42 13° 281° (W) 1,290 -1.9 -9.4°
Maximum altitude 07:33:32 73° 198° (SSW) 429 -3.7 -9.0°
Drops below altitude 10° 07:36:49 10° 113° (ESE) 1,466 0.7 -8.5°
Sets 07:38:54 0° 111° (ESE) 2,325 2.5 -8.2°
